EW6538 Weather Reports


time (UTC)temp
F
wind
direction
speed
knots
gust
knots
rain 1hr
in
rain 24hr
in
rain mn
in
humidity
%
barometer
mb
20260503050654 62 171 3.5 5.2 0.00 0.00 0.00 46 1010.2
20260503050200 62 163 3.5 4.3 0.00 0.00 0.00 46 1010.1
20260503045642 62 158 3.5 4.3 0.00 0.00 0.00 46 1010.1
20260503045140 63 160 2.6 4.3 0.00 0.00 0.00 44 1010.1
20260503044638 63 167 1.7 4.3 0.00 0.00 0.00 44 1010.0
20260503044158 63 161 1.7 3.5 0.00 0.00 0.00 43 1010.1
20260503043648 63 161 1.7 3.5 0.00 0.00 0.00 43 1010.0
20260503043147 63 161 2.6 3.5 0.00 0.00 0.00 42 1009.9
20260503042638 63 165 2.6 3.5 0.00 0.00 0.00 43 1009.9
20260503042134 63 159 1.7 4.3 0.00 0.00 0.00 44 1009.9
20260503041626 63 161 1.7 4.3 0.00 0.00 0.00 44 1009.9
20260503041227 63 159 1.7 3.5 0.00 0.00 0.00 45 1009.9
20260503040126 63 158 1.7 4.3 0.00 0.00 0.00 45 1009.8
20260503035619 63 159 1.7 4.3 0.00 0.00 0.00 46 1009.8
20260503035123 63 158 2.6 4.3 0.00 0.00 0.00 47 1009.7
20260503034631 62 163 2.6 4.3 0.00 0.00 0.00 48 1009.7
20260503034116 63 163 2.6 4.3 0.00 0.00 0.00 47 1009.6
20260503033629 63 165 2.6 4.3 0.00 0.00 0.00 46 1009.4
20260503033110 64 165 2.6 4.3 0.00 0.00 0.00 47 1009.3
20260503032615 64 159 2.6 4.3 0.00 0.00 0.00 46 1009.3
20260503032121 64 165 3.5 4.3 0.00 0.00 0.00 46 1009.2
20260503031636 64 165 4.3 6.1 0.00 0.00 0.00 46 1009.2
20260503031110 63 165 4.3 7.0 0.00 0.00 0.00 50 1009.1
20260503030637 63 161 4.3 7.0 0.00 0.00 0.00 50 1009.1
20260503030121 64 165 4.3 7.0 0.00 0.00 0.00 51 1009.1
20260503025736 66 169 3.5 5.2 0.00 0.00 0.00 45 1009.0
20260503024612 68 169 2.6 4.3 0.00 0.00 0.00 39 1009.0
20260503024115 68 169 2.6 3.5 0.00 0.00 0.00 38 1009.0
20260503023614 69 166 1.7 3.5 0.00 0.00 0.00 37 1009.0
20260503023106 69 165 1.7 1.7 0.00 0.00 0.00 38 1009.1
20260503022603 70 350 0.9 1.7 0.00 0.00 0.00 37 1009.0
20260503022114 70 350 0.0 1.7 0.00 0.00 0.00 36 1009.0
20260503021612 71 350 0.0 0.0 0.00 0.00 0.00 34 1009.0
20260503021116 71 350 0.0 0.0 0.00 0.00 0.00 34 1009.1
20260503020602 72 350 0.0 0.9 0.00 0.00 0.00 39 1009.0
20260503020116 72 350 0.0 0.9 0.00 0.00 0.00 33 1009.1
20260503015556 73 350 0.0 0.9 0.00 0.00 0.00 35 1009.0
20260503015059 73 350 0.0 0.9 0.00 0.00 0.00 31 1009.0
20260503014603 73 350 0.9 1.7 0.00 0.00 0.00 30 1009.0
20260503014108 73 350 0.9 2.6 0.00 0.00 0.00 32 1009.0
20260503013557 73 350 1.7 2.6 0.00 0.00 0.00 32 1009.0
20260503013103 74 350 2.6 3.5 0.00 0.00 0.00 30 1009.0
20260503012606 74 350 3.5 4.3 0.00 0.00 0.00 30 1009.0
20260503012102 74 350 3.5 4.3 0.00 0.00 0.00 31 1009.1
20260503011610 75 355 3.5 4.3 0.00 0.00 0.00 29 1009.1
20260503011057 75 350 2.6 4.3 0.00 0.00 0.00 27 1009.1
20260503010609 75 355 2.6 5.2 0.00 0.00 0.00 29 1009.1
20260503010109 75 62 3.5 6.1 0.00 0.00 0.00 26 1009.2
20260503005556 75 34 2.6 6.1 0.00 0.00 0.00 26 1009.2
20260503005059 75 28 1.7 4.3 0.00 0.00 0.00 27 1009.1
20260503004604 75 42 1.7 4.3 0.00 0.00 0.00 30 1009.2
20260503004058 74 58 1.7 3.5 0.00 0.00 0.00 29 1009.2
20260503003559 74 41 2.6 5.2 0.00 0.00 0.00 30 1009.2
20260503003054 75 36 1.7 5.2 0.00 0.00 0.00 28 1009.2
20260503002610 75 54 0.9 3.5 0.00 0.00 0.00 29 1009.2
20260503002055 75 54 1.7 4.3 0.00 0.00 0.00 28 1009.2
20260503001558 75 65 2.6 4.3 0.00 0.00 0.00 29 1009.3
20260503001052 75 52 2.6 4.3 0.00 0.00 0.00 29 1009.3
20260503000552 75 64 2.6 6.1 0.00 0.00 0.00 28 1009.3
20260503000159 75 88 4.3 8.7 0.00 0.00 0.00 30 1009.3
20260502235053 75 74 2.6 7.8 0.00 0.00 0.00 31 1009.3
20260502234549 75 53 2.6 7.0 0.00 0.00 0.00 29 1009.3
20260502234059 75 43 2.6 7.0 0.00 0.00 0.00 29 1009.6
20260502233547 74 76 3.5 7.0 0.00 0.00 0.00 29 1009.6
20260502233057 74 88 3.5 7.0 0.00 0.00 0.00 30 1009.6
20260502232558 74 84 4.3 7.8 0.00 0.00 0.00 28 1009.7
20260502232047 74 78 5.2 10.4 0.00 0.00 0.00 30 1009.7
20260502231550 74 86 7.0 10.4 0.00 0.00 0.00 27 1009.7
20260502231049 74 76 7.0 8.7 0.00 0.00 0.00 26 1009.7
20260502230546 74 65 6.1 9.6 0.00 0.00 0.00 27 1009.8
20260502225600 74 60 6.1 8.7 0.00 0.00 0.00 30 1009.9
20260502225047 74 61 6.1 8.7 0.00 0.00 0.00 29 1010.0
20260502224543 74 63 7.0 9.6 0.00 0.00 0.00 29 1010.1
20260502224052 74 62 7.0 10.4 0.00 0.00 0.00 28 1010.1
20260502223651 74 66 7.0 12.2 0.00 0.00 0.00 28 1010.1
20260502222545 74 100 7.0 10.4 0.00 0.00 0.00 33 1010.2
20260502222040 74 45 6.1 11.3 0.00 0.00 0.00 37 1010.2
20260502221603 74 57 7.0 11.3 0.00 0.00 0.00 37 1010.3
20260502221145 74 25 7.0 11.3 0.00 0.00 0.00 34 1010.3
20260502220100 73 34 6.1 11.3 0.00 0.00 0.00 37 1010.4
20260502215543 74 63 5.2 8.7 0.00 0.00 0.00 36 1010.4
20260502215045 73 35 6.1 9.6 0.00 0.00 0.00 37 1010.6
20260502214545 73 13 6.1 10.4 0.00 0.00 0.00 37 1010.5
20260502214039 73 5 6.1 10.4 0.00 0.00 0.00 38 1010.6
20260502213544 73 5 6.1 10.4 0.00 0.00 0.00 40 1010.6
20260502213038 73 344 6.1 9.6 0.00 0.00 0.00 43 1010.7
20260502212621 73 76 5.2 9.6 0.00 0.00 0.00 41 1010.7
20260502212102 73 36 5.2 12.2 0.00 0.00 0.00 42 1010.7
20260502211615 73 17 5.2 12.2 0.00 0.00 0.00 46 1010.8
20260502211055 72 28 5.2 9.6 0.00 0.00 0.00 45 1011.0
20260502210602 73 355 5.2 9.6 0.00 0.00 0.00 43 1011.0
20260502210108 73 49 4.3 9.6 0.00 0.00 0.00 46 1011.0
20260502205541 72 40 4.3 10.4 0.00 0.00 0.00 45 1011.0
20260502205045 72 56 6.1 11.3 0.00 0.00 0.00 45 1011.1
20260502204530 71 52 5.2 11.3 0.00 0.00 0.00 47 1011.1
20260502204037 71 34 5.2 10.4 0.00 0.00 0.00 44 1011.2
20260502203535 72 57 5.2 11.3 0.00 0.00 0.00 46 1011.2
20260502203028 71 72 5.2 11.3 0.00 0.00 0.00 47 1011.2
20260502202542 71 49 5.2 10.4 0.00 0.00 0.00 47 1011.3
20260502202019 71 88 5.2 10.4 0.00 0.00 0.00 46 1011.3
20260502201532 71 84 5.2 8.7 0.00 0.00 0.00 45 1011.3
20260502201127 71 15 5.2 8.7 0.00 0.00 0.00 46 1011.3
20260502200019 71 40 4.3 8.7 0.00 0.00 0.00 48 1011.4
20260502195527 70 51 4.3 8.7 0.00 0.00 0.00 47 1011.4
20260502195022 70 5 4.3 9.6 0.00 0.00 0.00 47 1011.5
20260502194613 70 65 4.3 9.6 0.00 0.00 0.00 46 1011.5
20260502193521 69 113 3.5 7.8 0.00 0.00 0.00 47 1011.6
20260502193035 69 28 3.5 7.8 0.00 0.00 0.00 46 1011.7
20260502192527 69 177 3.5 7.8 0.00 0.00 0.00 47 1011.6
20260502192012 68 50 2.6 7.8 0.00 0.00 0.00 48 1011.7
20260502191534 68 89 2.6 5.2 0.00 0.00 0.00 45 1011.7
20260502191124 68 53 2.6 5.2 0.00 0.00 0.00 47 1011.8
20260502190022 67 57 4.3 7.8 0.00 0.00 0.00 47 1011.9
20260502185507 67 62 4.3 7.0 0.00 0.00 0.00 46 1011.9
20260502185014 67 73 2.6 7.0 0.00 0.00 0.00 50 1011.9
20260502184514 66 32 2.6 7.8 0.00 0.00 0.00 48 1011.9
20260502184012 66 67 1.7 7.8 0.00 0.00 0.00 48 1012.0
20260502183510 65 49 2.6 6.1 0.00 0.00 0.00 50 1012.0
20260502183009 65 19 2.6 7.0 0.00 0.00 0.00 49 1012.0
20260502182510 64 105 3.5 7.8 0.00 0.00 0.00 49 1012.1
20260502182023 64 63 3.5 7.8 0.00 0.00 0.00 51 1012.1
20260502181510 64 61 3.5 7.8 0.00 0.00 0.00 51 1012.1
20260502181007 64 80 3.5 7.0 0.00 0.00 0.00 54 1012.1
20260502180511 64 90 3.5 7.0 0.00 0.00 0.00 54 1012.2
20260502164007 62 338 1.7 4.3 0.00 0.00 0.00 56 1012.1
20260502163503 61 285 1.7 4.3 0.00 0.00 0.00 55 1012.2
20260502163021 61 355 1.7 3.5 0.00 0.00 0.00 56 1012.2
20260502162510 61 28 1.7 4.3 0.00 0.00 0.00 57 1012.2
20260502162029 60 355 1.7 4.3 0.00 0.00 0.00 58 1012.2
20260502161554 60 317 1.7 3.5 0.00 0.00 0.00 57 1012.1
20260502161209 60 0 1.7 3.5 0.00 0.00 0.00 60 1012.2
20260502152102 60 216 0.0 2.6 0.00 0.00 0.00 51 1012.0
20260502151024 58 216 0.0 0.9 0.00 0.00 0.00 53 1012.0
20260502150604 58 216 0.0 0.9 0.00 0.00 0.00 55 1012.1
20260502130433 51 196 2.6 5.2 0.00 0.00 0.00 69 1011.9
20260502123555 50 189 4.3 7.0 0.00 0.00 0.00 69 1011.5
20260502123147 51 176 4.3 7.0 0.00 0.00 0.00 67 1011.5
20260502121441 52 205 7.0 10.4 0.00 0.00 0.00 66 1011.4
20260502120937 52 212 7.0 10.4 0.00 0.00 0.00 65 1011.3
20260502120435 53 190 7.8 9.6 0.00 0.00 0.00 65 1011.4
20260502115436 53 0 7.0 10.4 0.00 0.00 0.00 64 1011.5
20260502114935 53 191 7.0 10.4 0.00 0.00 0.00 63 1011.6
20260502114436 53 202 6.1 9.6 0.00 0.00 0.00 64 1011.6
20260502113937 53 193 6.1 7.8 0.00 0.00 0.00 64 1011.6
20260502113513 53 190 6.1 7.8 0.00 0.00 0.00 63 1011.6
20260502113001 53 202 7.0 7.8 0.00 0.00 0.00 64 1011.6
20260502112457 52 189 6.1 7.8 0.00 0.00 0.00 66 1011.6
20260502111953 53 190 6.1 7.8 0.00 0.00 0.00 65 1011.7
20260502111445 53 202 6.1 7.8 0.00 0.00 0.00 65 1011.7
20260502111000 53 191 6.1 7.8 0.00 0.00 0.00 65 1011.6
20260502110447 53 185 6.1 7.8 0.00 0.00 0.00 65 1011.6
20260502110012 53 206 7.0 8.7 0.00 0.00 0.00 65 1011.7
20260502105549 53 186 6.1 8.7 0.00 0.00 0.00 65 1011.7
20260502104448 52 194 5.2 7.0 0.00 0.00 0.00 67 1011.6
20260502104050 52 184 6.1 7.0 0.00 0.00 0.00 66 1011.7
20260502102937 52 194 6.1 7.8 0.00 0.00 0.00 66 1011.7
20260502102443 51 188 4.3 6.1 0.00 0.00 0.00 68 1011.6
20260502101940 51 180 3.5 5.2 0.00 0.00 0.00 69 1011.7
20260502101433 51 181 2.6 5.2 0.00 0.00 0.00 67 1011.7
20260502100930 52 184 4.3 6.1 0.00 0.00 0.00 65 1011.7
20260502100531 53 209 5.2 7.0 0.00 0.00 0.00 64 1011.7
20260502090917 52 169 1.7 4.3 0.00 0.00 0.00 64 1011.6
20260502090428 52 165 2.6 4.3 0.00 0.00 0.00 63 1011.6
20260502071419 59 206 5.2 7.0 0.00 0.00 0.00 49 1011.7
20260502070932 58 202 6.1 7.0 0.00 0.00 0.00 50 1011.7
20260502070410 59 184 5.2 7.0 0.00 0.00 0.00 51 1011.7
20260502070026 56 194 4.3 7.0 0.00 0.00 0.00 55 1011.7
20260502064913 57 168 5.2 7.0 0.00 0.00 0.00 55 1011.7
20260502064409 58 163 4.3 6.1 0.00 0.00 0.00 51 1011.7
20260502063911 58 163 4.3 6.1 0.00 0.00 0.00 52 1011.6
20260502063410 59 177 4.3 7.0 0.00 0.00 0.00 50 1011.6
20260502062912 58 163 5.2 7.8 0.00 0.00 0.00 51 1011.6
20260502062410 59 172 4.3 8.7 0.00 0.00 0.00 51 1011.6
20260502061912 60 155 4.3 8.7 0.00 0.00 0.00 48 1011.6
20260502061428 60 169 4.3 7.8 0.00 0.00 0.00 47 1011.6
20260502061004 60 169 4.3 7.8 0.00 0.00 0.00 48 1011.6
20260502055902 60 171 3.5 7.0 0.00 0.00 0.00 48 1011.6
20260502055401 60 159 4.3 7.8 0.00 0.00 0.00 48 1011.7
20260502054854 60 164 4.3 7.8 0.00 0.00 0.00 47 1011.7
20260502054355 60 172 4.3 7.0 0.00 0.00 0.00 48 1011.6
20260502053845 60 157 4.3 7.8 0.00 0.00 0.00 47 1011.7
20260502053349 61 143 4.3 7.8 0.00 0.00 0.00 46 1011.7
20260502052909 61 165 4.3 7.0 0.00 0.00 0.00 46 1011.6
20260502052446 61 163 4.3 7.0 0.00 0.00 0.00 45 1011.7
20260502051352 61 153 4.3 6.1 0.00 0.00 0.00 45 1011.7